Regional Weather Roundup
Issued by NWS

Home | Current Version | Previous Version | Graphics & Text | Print | Product List | Glossary On
Versions: 1 2 3 4 5 6 7 8 9 10 11 12 13 14 15 16 17 18 19 20 21 22 23 24 25 26 27 28 29 30 31 32 33 34 35 36 37 38 39 40 41 42 43 44 45 46 47 48 49 50
000
ASUS43 KFSD 301102
RWRSD

WEATHER ROUNDUP FOR SOUTH DAKOTA
NATIONAL WEATHER SERVICE SIOUX FALLS SD
600 AM CDT THU OCT 30 2014

NOTE: "FAIR" INDICATES FEW OR NO CLOUDS BELOW 12,000 FEET WITH NO
SIGNIFICANT WEATHER AND/OR OBSTRUCTIONS TO VISIBILITY.


SDZ001>005-009-010-012>017-301200-
NORTHWEST AND NORTH CENTRAL SOUTH DAKOTA

CITY           SKY/WX    TMP DP  RH WIND       PRES   REMARKS
BUFFALO          N/A     37  31  78 NW12      30.12R
FAITH            N/A     37  33  85 NW12      30.15R
MOBRIDGE       CLEAR     41  37  86 NW16      30.07R
$$

SDZ012>016-024>037-041>051-057-063-072>074-301200-
SOUTHWEST AND SOUTH CENTRAL SOUTH DAKOTA

CITY           SKY/WX    TMP DP  RH WIND       PRES   REMARKS
RAPID CTY ARPT CLEAR     37  30  75 SE3       30.18R
PIERRE         CLEAR     44  38  79 NW15      30.08R
CUSTER         CLEAR     38  25  59 W5        30.22R
ELLSWORTH AFB  CLEAR     47  32  55 N15       30.18R
PHILIP         CLEAR     36  31  82 W10       30.15R
PINE RIDGE     CLEAR     36  28  73 NW3       30.22R
SPEARFISH      FAIR      41  30  65 W10       30.23R
WINNER         FAIR      44  34  67 NW12      30.09R
$$

SDZ004>011-016>023-039-040-301200-
NORTHEAST SOUTH DAKOTA

CITY           SKY/WX    TMP DP  RH WIND       PRES   REMARKS
ABERDEEN       CLEAR     37  35  92 NW7       30.02R
WATERTOWN      PTCLDY    38  35  89 E3        29.97S
SISSETON         N/A     36  36 100 CALM      29.99R
$$

SDZ017-020-022-023-036>040-048>070-301200-
SOUTHEAST SOUTH DAKOTA

CITY           SKY/WX    TMP DP  RH WIND       PRES   REMARKS
SIOUX FALLS    PTCLDY    40  32  73 W5        29.97S
HURON          CLEAR     37  31  78 NW9       30.02R
CHAMBERLAIN    CLEAR     40  34  79 NW6       30.07R
MITCHELL       CLEAR     40  33  76 W10       30.03R
YANKTON        CLEAR     41  32  70 W8        30.01R
$$

ABBREVIATIONS USED IN REMARKS
   TC - TEMPERATURE IN CELSIUS
  WCI - WIND CHILL INDEX
   HX - HEAT INDEX
  VSB - VISIBILITY




USA.gov is the U.S. government's official web portal to all federal, state and local government web resources and services.